Belmar-Farmingdale, NJ

4:35 PM EST on December 10, 2019 (GMT -0500)
Allaire

Weather History for KBLM - October, 2019

Change the Weather History Date:

Thursday, October 3, 2019

  Actual Average Record
Temperature  
Mean Temperature 63 °F -  
Max Temperature 68 °F 65 °F 82 °F (2002)
Min Temperature 57 °F 49 °F 33 °F (2003)
Degree Days  
Heating Degree Days 2    
Growing Degree Days 13 (Base 50)    
Moisture  
Dew Point 60 °F    
Average Humidity 95    
Maximum Humidity 100    
Minimum Humidity 87    
Precipitation  
Precipitation 0.25 in - - ()
Sea Level Pressure  
Sea Level Pressure 30.05 in    
Wind  
Wind Speed 11 mph ()    
Max Wind Speed 17 mph    
Max Gust Speed 24 mph    
Visibility 4.4 miles    
Events Rain    
Averages and records for this station are not official NWS values.
T = Trace of Precipitation, MM = Missing Value Source: Averaged Metar Reports

Daily Weather History Graph

Daily Weather History Graph

Search for Another Location

Airport or City:

Astronomy

Oct. 03, 2019 Rise Set
Actual Time 6:54 AM EDT 6:35 PM EDT
Civil Twilight 6:27 AM EDT 7:02 PM EDT
Nautical Twilight 5:56 AM EDT 7:34 PM EDT
Astronomical Twilight 5:24 AM EDT 8:05 PM EDT
Moon 12:23 PM EDT (10/3) 10:12 PM EDT (10/3)
Length of Visible Light 12h 35m
Length of Day
11h 41m
Waxing Crescent, 29% of the Moon is Illuminated
Oct 3
Waxing Crescent
Oct 5
First Quarter
Oct 13
Full
Oct 21
Last Quarter
Oct 27
New

Hourly Weather History & Observations

Time (EDT) Temp. Dew Point Humidity Pressure Visibility Wind Dir Wind Speed Gust Speed Precip Events Conditions
12:09 AM 69.8 °F 66.2 °F 88% 29.97 in 10.0 mi ENE 9.2 mph - N/A   Overcast
12:56 AM 68.0 °F 64.0 °F 87% 29.97 in 10.0 mi ENE 13.8 mph 23.0 mph N/A   Overcast
1:10 AM 66.2 °F 64.4 °F 94% 29.97 in 8.0 mi ENE 17.3 mph 24.2 mph N/A   Overcast
1:56 AM 64.9 °F 64.0 °F 97% 29.99 in 6.0 mi ENE 10.4 mph 18.4 mph 0.00 in Rain Light Rain
2:09 AM 66.2 °F 64.4 °F 94% 30.00 in 6.0 mi ENE 11.5 mph 18.4 mph 0.00 in Rain Light Rain
2:56 AM 64.9 °F 64.0 °F 97% 30.00 in 6.0 mi NE 9.2 mph - 0.01 in Rain Light Rain
3:15 AM 64.4 °F 62.6 °F 94% 30.00 in 2.0 mi ENE 13.8 mph - 0.01 in Rain Light Rain
3:38 AM 64.4 °F 62.6 °F 94% 30.01 in 3.0 mi ENE 12.7 mph 19.6 mph 0.05 in Rain Light Rain
3:56 AM 64.0 °F 62.1 °F 93% 30.01 in 10.0 mi ENE 8.1 mph 17.3 mph 0.05 in Rain Light Rain
4:14 AM 62.6 °F 62.6 °F 100% 30.02 in 10.0 mi ENE 12.7 mph 20.7 mph 0.01 in Rain Light Rain
4:52 AM 62.6 °F 60.8 °F 94% 30.03 in 8.0 mi ENE 13.8 mph 24.2 mph 0.03 in Rain Light Rain
4:56 AM 62.1 °F 61.0 °F 96% 30.03 in 10.0 mi ENE 11.5 mph 24.2 mph 0.03 in Rain Light Rain
5:28 AM 62.6 °F 60.8 °F 94% 30.04 in 6.0 mi ENE 13.8 mph 21.9 mph 0.00 in Rain Light Rain
5:56 AM 61.0 °F 59.0 °F 93% 30.06 in 9.0 mi ENE 15.0 mph 19.6 mph 0.01 in Rain Light Rain
6:12 AM 60.8 °F 59.0 °F 94% 30.07 in 9.0 mi ENE 11.5 mph - 0.00 in Rain Light Rain
6:19 AM 60.8 °F 59.0 °F 94% 30.08 in 7.0 mi ENE 11.5 mph - 0.01 in Rain Light Rain
6:56 AM 60.1 °F 57.9 °F 93% 30.08 in 7.0 mi ENE 15.0 mph - 0.01 in Rain Light Rain
7:21 AM 60.8 °F 57.2 °F 88% 30.09 in 5.0 mi ENE 16.1 mph - 0.01 in Rain Light Rain
7:56 AM 60.1 °F 57.9 °F 93% 30.11 in 10.0 mi ENE 13.8 mph - 0.02 in Rain Light Rain
8:56 AM 59.0 °F 57.0 °F 93% 30.13 in 2.0 mi ENE 11.5 mph - 0.02 in Rain Light Rain
9:06 AM 57.2 °F 57.2 °F 100% 30.13 in 1.8 mi ENE 10.4 mph 21.9 mph 0.01 in Rain Light Rain
9:14 AM 57.2 °F 57.2 °F 100% 30.13 in 2.5 mi ENE 13.8 mph - 0.01 in Rain Light Rain
9:21 AM 57.2 °F 57.2 °F 100% 30.12 in 5.0 mi East 12.7 mph 18.4 mph 0.01 in Rain Light Rain
9:56 AM 57.9 °F 57.0 °F 97% 30.13 in 8.0 mi ENE 12.7 mph 17.3 mph 0.02 in Rain Light Rain
10:51 AM 59.0 °F 57.2 °F 94% 30.12 in 4.0 mi ENE 15.0 mph 21.9 mph 0.00 in Rain Light Rain
10:56 AM 59.0 °F 57.0 °F 93% 30.13 in 3.0 mi ENE 12.7 mph 21.9 mph 0.00 in Rain Light Rain
10:58 AM 59.0 °F 57.2 °F 94% 30.13 in 2.5 mi East 10.4 mph - 0.00 in Rain Light Rain
11:26 AM 57.2 °F 57.2 °F 100% 30.12 in 2.5 mi ENE 11.5 mph - 0.00 in Rain Light Rain
11:56 AM 59.0 °F 57.9 °F 96% 30.12 in 2.0 mi ENE 11.5 mph 18.4 mph 0.01 in Rain Light Rain
12:07 PM 59.0 °F 57.2 °F 94% 30.11 in 3.0 mi East 10.4 mph 17.3 mph 0.00 in Rain Light Rain
12:17 PM 57.2 °F 57.2 °F 100% 30.10 in 2.5 mi East 12.7 mph - 0.00 in Rain Light Rain
12:26 PM 59.0 °F 57.2 °F 94% 30.11 in 2.0 mi East 10.4 mph 17.3 mph 0.00 in Rain Light Rain
12:34 PM 59.0 °F 57.2 °F 94% 30.11 in 2.0 mi ENE 9.2 mph 17.3 mph 0.01 in Rain Light Rain
12:44 PM 59.0 °F 57.2 °F 94% 30.10 in 3.0 mi ENE 12.7 mph 19.6 mph 0.01 in Rain Light Rain
12:53 PM 59.0 °F 57.2 °F 94% 30.10 in 2.0 mi East 12.7 mph - 0.01 in Rain Light Rain
12:56 PM 59.0 °F 57.9 °F 96% 30.10 in 2.0 mi East 16.1 mph 20.7 mph 0.01 in Rain Light Rain
1:43 PM 59.0 °F 57.2 °F 94% 30.09 in 3.0 mi East 11.5 mph 18.4 mph 0.01 in Rain Light Rain
1:56 PM 59.0 °F 57.9 °F 96% 30.09 in 4.0 mi East 11.5 mph - 0.01 in Rain Light Rain
2:26 PM 59.0 °F 57.2 °F 94% 30.09 in 2.5 mi East 12.7 mph - 0.00 in Rain Light Rain
2:56 PM 59.0 °F 57.9 °F 96% 30.09 in 2.0 mi East 10.4 mph - 0.01 in Rain Light Rain
3:25 PM 59.0 °F 57.2 °F 94% 30.08 in 3.0 mi East 12.7 mph - 0.01 in Rain Light Rain
3:56 PM 59.0 °F 57.9 °F 96% 30.07 in 3.0 mi East 10.4 mph - 0.01 in Rain Light Rain
4:25 PM 59.0 °F 57.2 °F 94% 30.07 in 2.5 mi East 6.9 mph - 0.00 in Rain Light Rain
4:37 PM 59.0 °F 57.2 °F 94% 30.06 in 4.0 mi East 11.5 mph - 0.00 in Rain Light Rain
4:56 PM 59.0 °F 59.0 °F 100% 30.06 in 2.5 mi East 12.7 mph - 0.00 in Rain Light Rain
5:10 PM 59.0 °F 57.2 °F 94% 30.06 in 3.0 mi East 10.4 mph - 0.01 in Rain Light Rain
5:17 PM 59.0 °F 57.2 °F 94% 30.06 in 2.5 mi East 10.4 mph - 0.01 in Rain Light Rain
5:56 PM 59.0 °F 59.0 °F 100% 30.05 in 2.5 mi East 11.5 mph - 0.01 in Rain Light Rain
6:19 PM 59.0 °F 59.0 °F 100% 30.04 in 3.0 mi East 9.2 mph 16.1 mph 0.00 in Rain Light Rain
6:56 PM 60.1 °F 59.0 °F 96% 30.04 in 4.0 mi East 9.2 mph - 0.00 in Rain Light Rain
7:31 PM 60.8 °F 60.8 °F 100% 30.02 in 4.0 mi East 9.2 mph - 0.01 in Rain Light Rain
7:56 PM 61.0 °F 60.1 °F 97% 30.01 in 3.0 mi East 9.2 mph - 0.01 in Rain Light Rain
8:46 PM 62.6 °F 60.8 °F 94% 30.00 in 2.5 mi ESE 6.9 mph - 0.00 in Rain Light Rain
8:53 PM 62.6 °F 60.8 °F 94% 30.00 in 3.0 mi East 9.2 mph - 0.00 in Rain Light Rain
8:56 PM 62.1 °F 61.0 °F 96% 30.00 in 3.0 mi ESE 5.8 mph - 0.00 in Rain Light Rain
9:56 PM 63.0 °F 63.0 °F 100% 29.99 in 3.0 mi Calm Calm - 0.00 in Rain Light Rain
10:56 PM 64.0 °F 64.0 °F 100% 29.96 in 3.0 mi Calm Calm - 0.01 in Rain Light Rain
11:22 PM 64.4 °F 64.4 °F 100% 29.95 in 2.5 mi Calm Calm - 0.00 in Rain Light Rain
11:54 PM 64.4 °F 62.6 °F 94% 29.94 in 3.0 mi WNW 3.5 mph - 0.00 in   Overcast
11:56 PM 64.0 °F 63.0 °F 96% 29.94 in 2.5 mi WNW 4.6 mph - 0.00 in   Overcast